This is the latest recevied weather packets stored in our database for station/object JS2WAD-13. If no packets are shown the sender has not sent any weather packets the latest 10 day(s).
| Time | Temp. | Humidity | Pressure | Rain* | Wind** | Luminosity | Snow |
|---|---|---|---|---|---|---|---|
| 1777879287 | 18.33° C | 62% | 898.8 hPa | 0 mm | - | 84 W/m² | - |
| 1777878987 | 18.33° C | 61% | 898.8 hPa | 0 mm | - | 77 W/m² | - |
| 1777878687 | 18.33° C | 59% | 898.8 hPa | 0 mm | - | 86 W/m² | - |
| 1777878387 | 18.89° C | 59% | 899.1 hPa | 0 mm | - | 163 W/m² | - |
| 1777878087 | 19.44° C | 58% | 898.6 hPa | 0 mm | - | 169 W/m² | - |
| 1777877787 | 20° C | 61% | 898.6 hPa | 0 mm | - | 439 W/m² | - |
| 1777877487 | 20° C | 60% | 898.4 hPa | 0 mm | - | 244 W/m² | - |
| 1777877187 | 20° C | 56% | 898.3 hPa | 0 mm | - | 272 W/m² | - |
| 1777876887 | 20° C | 56% | 898.2 hPa | 0 mm | - | 153 W/m² | - |
| 1777876587 | 21.11° C | 57% | 898.2 hPa | 0 mm | - | 116 W/m² | - |
| 1777876287 | 21.11° C | 54% | 897.9 hPa | 0 mm | - | 141 W/m² | - |
| 1777875987 | 21.11° C | 54% | 897.8 hPa | 0 mm | - | 186 W/m² | - |
| 1777875687 | 21.11° C | 53% | 897.5 hPa | 0 mm | - | 162 W/m² | - |
| 1777875387 | 21.67° C | 53% | 897.4 hPa | 0 mm | - | 181 W/m² | - |
| 1777875087 | 21.67° C | 53% | 897.3 hPa | 0 mm | - | 181 W/m² | - |
| 1777874787 | 21.67° C | 57% | 897.3 hPa | 0 mm | - | 206 W/m² | - |
| 1777874487 | 21.67° C | 55% | 897.1 hPa | 0 mm | - | 383 W/m² | - |
| 1777874187 | 21.67° C | 56% | 896.9 hPa | 0 mm | - | 301 W/m² | - |
| 1777873887 | 21.67° C | 56% | 896.9 hPa | 0 mm | - | 301 W/m² | - |
| 1777873587 | 21.67° C | 56% | 897 hPa | 0 mm | - | 332 W/m² | - |
| 1777873287 | 21.67° C | 57% | 896.8 hPa | 0 mm | - | 341 W/m² | - |
| 1777872987 | 21.11° C | 59% | 896.8 hPa | 0 mm | - | 411 W/m² | - |
| 1777872687 | 21.11° C | 56% | 896.8 hPa | 0 mm | - | 329 W/m² | - |
| 1777872387 | 21.11° C | 63% | 896.8 hPa | 0 mm | - | 260 W/m² | - |
| 1777872087 | 21.11° C | 60% | 896.6 hPa | 0 mm | - | 176 W/m² | - |
* Rain latest hour (hover to see other rain measurements)
** Current wind speed in m/s (hover to see current wind gust speed)